TimeCST,TemperatureF,Dew PointF,Humidity,Sea Level PressureIn,VisibilityMPH,Wind Direction,Wind SpeedMPH,Gust SpeedMPH,PrecipitationIn,Events,Conditions,WindDirDegrees,DateUTC
12:53 AM,30.9,30.0,96,29.96,10.0,NNW,16.1,19.6,N/A,,Overcast,340,2013-01-13 06:53:00
1:25 AM,30.2,26.6,86,29.97,10.0,North,13.8,21.9,N/A,,Overcast,350,2013-01-13 07:25:00
1:53 AM,28.9,27.0,92,30.01,10.0,North,17.3,23.0,N/A,,Overcast,350,2013-01-13 07:53:00
2:53 AM,27.0,25.0,92,30.00,10.0,North,8.1,-,N/A,,Overcast,360,2013-01-13 08:53:00
3:53 AM,27.0,24.1,89,30.04,10.0,North,11.5,18.4,N/A,,Overcast,360,2013-01-13 09:53:00
4:53 AM,25.0,21.9,88,30.07,10.0,NNW,12.7,-,N/A,,Overcast,340,2013-01-13 10:53:00
5:15 AM,24.8,19.4,80,30.06,10.0,NNW,12.7,-,N/A,,Overcast,340,2013-01-13 11:15:00
5:53 AM,24.1,18.0,77,30.08,7.0,North,10.4,17.3,N/A,,Overcast,10,2013-01-13 11:53:00
6:53 AM,24.1,18.0,77,30.10,10.0,North,9.2,-,N/A,,Overcast,350,2013-01-13 12:53:00
7:53 AM,24.1,19.0,81,30.15,10.0,NNW,10.4,-,N/A,,Overcast,330,2013-01-13 13:53:00
8:53 AM,23.0,19.0,85,30.21,10.0,NNW,6.9,-,0.00,,Overcast,340,2013-01-13 14:53:00
9:53 AM,23.0,18.0,81,30.22,10.0,North,8.1,18.4,N/A,,Overcast,350,2013-01-13 15:53:00
10:53 AM,24.1,19.0,81,30.22,10.0,NNW,8.1,-,N/A,,Overcast,330,2013-01-13 16:53:00
11:53 AM,25.0,19.9,81,30.21,10.0,NW,9.2,-,N/A,,Overcast,310,2013-01-13 17:53:00
12:53 PM,26.1,18.0,71,30.22,10.0,NNW,11.5,-,N/A,,Overcast,340,2013-01-13 18:53:00
1:53 PM,25.0,17.1,72,30.24,10.0,North,10.4,-,N/A,,Mostly Cloudy,350,2013-01-13 19:53:00
2:53 PM,27.0,19.0,72,30.25,10.0,NNW,11.5,-,N/A,,Partly Cloudy,330,2013-01-13 20:53:00
3:53 PM,26.1,18.0,71,30.27,10.0,NNW,12.7,-,N/A,,Clear,340,2013-01-13 21:53:00
4:53 PM,25.0,17.1,72,30.27,10.0,North,5.8,-,N/A,,Clear,360,2013-01-13 22:53:00
5:53 PM,23.0,17.1,78,30.28,10.0,North,5.8,-,N/A,,Clear,360,2013-01-13 23:53:00
6:53 PM,21.9,17.1,82,30.30,10.0,North,3.5,-,N/A,,Clear,10,2013-01-14 00:53:00
7:53 PM,21.0,17.1,85,30.30,10.0,North,4.6,-,N/A,,Clear,360,2013-01-14 01:53:00
8:53 PM,19.9,17.1,89,30.32,10.0,North,4.6,-,N/A,,Clear,360,2013-01-14 02:53:00
9:53 PM,19.9,14.0,78,30.34,10.0,North,4.6,-,N/A,,Clear,360,2013-01-14 03:53:00
10:53 PM,18.0,14.0,84,30.36,10.0,Calm,Calm,-,N/A,,Clear,0,2013-01-14 04:53:00
11:53 PM,18.0,12.9,81,30.39,10.0,Calm,Calm,-,N/A,,Clear,0,2013-01-14 05:53:00